Location: Tel Aviv-Yafo
(32.0853°N, 34.7818°E)
Time: 20:42:59
(UTC+02:00)

BlueWalker 3 - Pass Details

Date: 24 January 2026
Orbit: 450 x 461 km, 53.2° (Epoch: 9 February)

Event Time Altitude Azimuth Distance (km) Brightness Sun altitude
Rises 17:35:22 0° 262° (W) 2,449 7.6 -6.4°
Reaches altitude 10° 17:38:09 10° 285° (WNW) 1,578 5.4 -7.0°
Maximum altitude 17:40:22 16° 324° (NW) 1,273 4.2 -7.4°
Drops below altitude 10° 17:42:36 10° 3° (N) 1,579 4.3 -7.9°
Enters shadow 17:44:54 - 24° (NNE) 2,278 4.9 -8.4°
